Location: Althorst
(53.6379°N, 10.7715°E)
Time: 08:35:33
(UTC+00:00)

NOSS 2-2 (D) - Pass Details

Date: 10 December 2019
Orbit: 485 x 1724 km, 63.3° (Epoch: 19 January)

Event Time Altitude Azimuth Distance (km) Brightness Sun altitude
Rises 15:47:29 0° 244° (WSW) 2,571 9.4 -7.0°
Reaches altitude 10° 15:49:31 10° 250° (WSW) 1,736 7.6 -7.3°
Maximum altitude 15:53:13 52° 328° (NNW) 715 3.9 -7.8°
Drops below altitude 10° 15:57:46 10° 45° (NE) 2,129 5.7 -8.3°
Enters shadow 15:57:54 - 46° (NE) 2,187 5.8 -8.4°
